When you browse on this site, cookies collect data to enhance your experience and personalize the content and advertising you see.
Visit our Privacy Policy to learn more. By continuing to use the site, you agree to this use of cookies and data.
  • In United Kingdom
  • List of Countries
  • For 7 days
  • Water Temperature
  • Satellite Maps
  • Weather Map
  • Weather Widgets
  • user-avatar
    Login

    Hourly Weather Coleraine

    Today, 19 April, Friday

    Time Temperature Precipitation Wind Pressure Humidity
    00:00 +9°C° 0 mm 3 mps 769 mmHg 91%
    01:00 +8°C° 0 mm 3 mps 769 mmHg 92%
    02:00 +8°C° 0 mm 3 mps 769 mmHg 93%
    03:00 +8°C° 0 mm 3 mps 769 mmHg 94%
    04:00 +8°C° 0 mm 3 mps 769 mmHg 94%
    05:00 +8°C° 0 mm 3 mps 769 mmHg 95%
    06:00 +7°C° 0 mm 4 mps 769 mmHg 95%
    07:00 +10°C° 0 mm 4 mps 769 mmHg 91%
    08:00 +12°C° 0 mm 4 mps 769 mmHg 86%
    09:00 +14°C° 0 mm 4 mps 770 mmHg 82%
    10:00 +15°C° 0 mm 5 mps 770 mmHg 77%
    11:00 +17°C° 0 mm 5 mps 770 mmHg 73%
    12:00 +19°C° 0 mm 6 mps 770 mmHg 69%
    13:00 +19°C° 0 mm 6 mps 770 mmHg 68%
    14:00 +20°C° 0 mm 6 mps 770 mmHg 67%
    15:00 +20°C° 0 mm 6 mps 770 mmHg 66%
    16:00 +19°C° 0 mm 5 mps 770 mmHg 70%
    17:00 +19°C° 0 mm 5 mps 770 mmHg 74%
    18:00 +18°C° 0 mm 4 mps 770 mmHg 78%
    19:00 +17°C° 0 mm 4 mps 770 mmHg 82%
    20:00 +14°C° 0 mm 4 mps 770 mmHg 85%
    21:00 +12°C° 0 mm 4 mps 771 mmHg 89%
    22:00 +12°C° 0 mm 4 mps 771 mmHg 90%
    23:00 +11°C° 0 mm 4 mps 771 mmHg 91%

    Tomorrow, 20 April, Saturday

    Time Temperature Precipitation Wind Pressure Humidity
    00:00 +11°C° 0 mm 3 mps 771 mmHg 92%
    01:00 +11°C° 0 mm 3 mps 771 mmHg 94%
    02:00 +11°C° 0 mm 3 mps 771 mmHg 95%
    03:00 +11°C° 0 mm 3 mps 771 mmHg 96%
    04:00 +11°C° 0 mm 3 mps 771 mmHg 96%
    05:00 +12°C° 0 mm 2 mps 771 mmHg 97%
    06:00 +12°C° 0 mm 2 mps 771 mmHg 97%
    07:00 +13°C° 0 mm 2 mps 771 mmHg 92%
    08:00 +15°C° 0 mm 1 mps 771 mmHg 88%
    09:00 +16°C° 0 mm 1 mps 771 mmHg 83%
    10:00 +18°C° 0 mm 1 mps 771 mmHg 79%
    11:00 +19°C° 0 mm 1 mps 771 mmHg 75%
    12:00 +20°C° 0 mm 1 mps 771 mmHg 72%
    13:00 +18°C° 0 mm 2 mps 771 mmHg 77%
    14:00 +17°C° 0 mm 3 mps 771 mmHg 82%
    15:00 +14°C° 0 mm 3 mps 771 mmHg 87%
    16:00 +14°C° 0.1 mm 3 mps 771 mmHg 90%
    17:00 +13°C° 0.1 mm 3 mps 770 mmHg 92%
    18:00 +13°C° 0.1 mm 2 mps 770 mmHg 94%
    19:00 +12°C° 0.1 mm 2 mps 770 mmHg 95%
    20:00 +12°C° 0.1 mm 1 mps 770 mmHg 95%
    21:00 +11°C° 0.1 mm 1 mps 770 mmHg 96%
    22:00 +11°C° 0.3 mm 1 mps 769 mmHg 95%
    23:00 +11°C° 0.3 mm 1 mps 768 mmHg 95%

    Day after tomorrow, 21 April, Sunday

    Time Temperature Precipitation Wind Pressure Humidity
    00:00 +11°C° 0.3 mm 1 mps 768 mmHg 95%
    01:00 +11°C° 0.2 mm 1 mps 767 mmHg 95%
    02:00 +10°C° 0.2 mm 2 mps 766 mmHg 96%
    03:00 +10°C° 0.2 mm 3 mps 765 mmHg 97%
    04:00 +10°C° 0.2 mm 3 mps 765 mmHg 97%
    05:00 +11°C° 0.2 mm 3 mps 764 mmHg 97%
    06:00 +11°C° 0.2 mm 4 mps 763 mmHg 96%
    07:00 +12°C° 0.2 mm 4 mps 762 mmHg 95%
    08:00 +13°C° 0.2 mm 5 mps 762 mmHg 93%
    09:00 +14°C° 0.2 mm 5 mps 761 mmHg 91%
    10:00 +15°C° 0 mm 5 mps 761 mmHg 85%
    11:00 +16°C° 0 mm 6 mps 760 mmHg 78%
    12:00 +17°C° 0 mm 6 mps 759 mmHg 71%
    13:00 +19°C° 0 mm 6 mps 758 mmHg 71%
    14:00 +19°C° 0 mm 6 mps 758 mmHg 70%
    15:00 +19°C° 0 mm 6 mps 757 mmHg 70%
    16:00 +17°C° 0.1 mm 6 mps 756 mmHg 75%
    17:00 +16°C° 0.1 mm 5 mps 755 mmHg 81%
    18:00 +15°C° 0.1 mm 4 mps 755 mmHg 87%
    19:00 +15°C° 0.2 mm 4 mps 755 mmHg 89%
    20:00 +14°C° 0.2 mm 4 mps 754 mmHg 91%
    21:00 +13°C° 0.2 mm 4 mps 754 mmHg 93%
    22:00 +13°C° 0.1 mm 5 mps 754 mmHg 92%
    23:00 +12°C° 0.1 mm 5 mps 753 mmHg 91%

    22 April, Monday

    Time Temperature Precipitation Wind Pressure Humidity
    00:00 +10°C° 0.1 mm 6 mps 753 mmHg 90%
    01:00 +10°C° 0.1 mm 6 mps 752 mmHg 88%
    02:00 +9°C° 0.1 mm 6 mps 752 mmHg 86%
    03:00 +9°C° 0.1 mm 6 mps 751 mmHg 83%
    04:00 +9°C° 0 mm 6 mps 751 mmHg 83%
    05:00 +9°C° 0 mm 6 mps 750 mmHg 83%
    06:00 +9°C° 0 mm 6 mps 750 mmHg 83%
    07:00 +10°C° 0 mm 7 mps 750 mmHg 80%
    08:00 +11°C° 0 mm 7 mps 750 mmHg 76%
    09:00 +12°C° 0 mm 8 mps 750 mmHg 72%
    10:00 +15°C° 0 mm 8 mps 750 mmHg 71%
    11:00 +16°C° 0 mm 8 mps 750 mmHg 69%
    12:00 +17°C° 0 mm 8 mps 749 mmHg 67%
    13:00 +17°C° 0 mm 8 mps 749 mmHg 68%
    14:00 +17°C° 0 mm 8 mps 749 mmHg 69%
    15:00 +17°C° 0 mm 8 mps 749 mmHg 71%
    16:00 +16°C° 0 mm 7 mps 749 mmHg 72%
    17:00 +16°C° 0 mm 7 mps 749 mmHg 74%
    18:00 +15°C° 0 mm 6 mps 749 mmHg 75%
    19:00 +14°C° 0 mm 6 mps 749 mmHg 80%
    20:00 +13°C° 0 mm 5 mps 750 mmHg 86%
    21:00 +11°C° 0 mm 4 mps 750 mmHg 91%
    22:00 +11°C° 0 mm 4 mps 750 mmHg 92%
    23:00 +10°C° 0 mm 4 mps 750 mmHg 94%

    23 April, Tuesday

    Time Temperature Precipitation Wind Pressure Humidity
    00:00 +10°C° 0 mm 3 mps 750 mmHg 95%
    01:00 +10°C° 0 mm 3 mps 750 mmHg 95%
    02:00 +10°C° 0 mm 3 mps 750 mmHg 95%
    03:00 +10°C° 0 mm 3 mps 749 mmHg 95%
    04:00 +10°C° 0 mm 3 mps 750 mmHg 95%
    05:00 +10°C° 0 mm 3 mps 750 mmHg 95%
    06:00 +10°C° 0 mm 3 mps 750 mmHg 96%
    07:00 +11°C° 0 mm 4 mps 750 mmHg 90%
    08:00 +13°C° 0 mm 4 mps 750 mmHg 85%
    09:00 +14°C° 0 mm 4 mps 750 mmHg 80%
    10:00 +15°C° 0 mm 4 mps 750 mmHg 76%
    11:00 +17°C° 0 mm 4 mps 750 mmHg 72%
    12:00 +17°C° 0 mm 5 mps 749 mmHg 68%
    13:00 +17°C° 0 mm 5 mps 749 mmHg 66%
    14:00 +17°C° 0 mm 5 mps 749 mmHg 65%
    15:00 +17°C° 0 mm 5 mps 748 mmHg 63%
    16:00 +17°C° 0 mm 5 mps 748 mmHg 67%
    17:00 +17°C° 0 mm 4 mps 748 mmHg 72%
    18:00 +15°C° 0 mm 4 mps 747 mmHg 76%
    19:00 +14°C° 0 mm 4 mps 747 mmHg 80%
    20:00 +13°C° 0 mm 4 mps 748 mmHg 83%
    21:00 +10°C° 0 mm 5 mps 748 mmHg 86%
    22:00 +10°C° 0 mm 5 mps 748 mmHg 86%
    23:00 +10°C° 0 mm 6 mps 747 mmHg 86%

    24 April, Wednesday

    Time Temperature Precipitation Wind Pressure Humidity
    00:00 +10°C° 0 mm 6 mps 747 mmHg 86%
    01:00 +10°C° 0 mm 6 mps 747 mmHg 88%
    02:00 +10°C° 0 mm 6 mps 747 mmHg 89%
    03:00 +10°C° 0 mm 6 mps 747 mmHg 91%
    04:00 +10°C° 0 mm 6 mps 747 mmHg 92%
    05:00 +10°C° 0 mm 6 mps 747 mmHg 92%
    06:00 +10°C° 0 mm 6 mps 747 mmHg 92%
    07:00 +11°C° 0 mm 6 mps 747 mmHg 91%
    08:00 +11°C° 0 mm 7 mps 747 mmHg 90%
    09:00 +11°C° 0 mm 7 mps 748 mmHg 88%
    10:00 +12°C° 0.2 mm 7 mps 748 mmHg 89%
    11:00 +12°C° 0.2 mm 7 mps 748 mmHg 89%
    12:00 +12°C° 0.2 mm 7 mps 749 mmHg 89%
    13:00 +14°C° 0.2 mm 6 mps 749 mmHg 82%
    14:00 +15°C° 0.2 mm 6 mps 749 mmHg 74%
    15:00 +16°C° 0.2 mm 5 mps 749 mmHg 67%
    16:00 +15°C° 0 mm 5 mps 749 mmHg 69%
    17:00 +15°C° 0 mm 4 mps 750 mmHg 70%
    18:00 +14°C° 0 mm 4 mps 750 mmHg 72%
    19:00 +13°C° 0 mm 4 mps 750 mmHg 73%
    20:00 +11°C° 0 mm 4 mps 751 mmHg 74%
    21:00 +10°C° 0 mm 3 mps 751 mmHg 75%
    22:00 +9°C° 0.1 mm 3 mps 751 mmHg 77%
    23:00 +9°C° 0.1 mm 3 mps 751 mmHg 79%
    Show more